Location: Unspecified
(0.0000°N, 0.0000°E)
Time: 18:22:35
(UTC+00:00)

AO-7 - Pass Details

Date: 16 December 2017
Orbit: 1439 x 1459 km, 101.7° (Epoch: 24 April)

Event Time Altitude Azimuth Distance (km) Brightness Sun altitude
Exits shadow 05:06:33 11° 275° (W) 3,490 ? -11.2°
Drops below altitude 10° 05:07:33 10° 268° (W) 3,577 ? -11.0°
Sets 05:12:56 0° 239° (WSW) 4,557 ? -9.8°
